Fullerton, CA

1:56 PM PDT on September 22, 2017 (GMT -0700)
Fullerton Municipal

Weather History for KFUL - November, 2014

Change the Weather History Date:

Saturday, November 8, 2014

  Actual Average Record
Temperature  
Mean Temperature 73 °F 63 °F  
Max Temperature 91 °F 74 °F 96 °F (2016)
Min Temperature 54 °F 52 °F 44 °F (2011)
Degree Days  
Heating Degree Days 0 3  
Month to date heating degree days 8 20  
Since 1 July heating degree days 8 44  
Cooling Degree Days 8 1  
Month to date cooling degree days 33 10  
Year to date cooling degree days 2081 1241  
Growing Degree Days 22 (Base 50)    
Moisture  
Dew Point 41 °F    
Average Humidity 39    
Maximum Humidity 66    
Minimum Humidity 11    
Precipitation  
Precipitation 0.00 in 0.04 in 0.71 in (2002)
Month to date precipitation 0.25 0.36  
Year to date precipitation 4.00 11.09  
Since 1 July precipitation 0.54  
Snow  
Snow 0.00 in - - ()
Month to date snowfall 0.0  
Year to date snowfall 0.0  
Snow Depth 0.00 in    
Sea Level Pressure  
Sea Level Pressure 29.99 in    
Wind  
Wind Speed 1 mph (South)    
Max Wind Speed 8 mph    
Max Gust Speed 11 mph    
Visibility 10 miles    
Events      
T = Trace of Precipitation, MM = Missing Value Source: NWS Daily Summary

Daily Weather History Graph

Daily Weather History Graph

Search for Another Location

Airport or City:

Trip Planner

Search our weather history database for the weather conditions in past years. The results will help you decide how hot, cold, wet, or windy it might be!

Date:

Astronomy

Nov. 08, 2014 Rise Set
Actual Time 6:17 AM PST 4:53 PM PST
Civil Twilight 5:51 AM PST 5:19 PM PST
Nautical Twilight 5:21 AM PST 5:49 PM PST
Astronomical Twilight 4:52 AM PST 6:18 PM PST
Moon 6:40 PM PST (11/8) 7:57 AM PST (11/8)
Length of Visible Light 11h 27m
Length of Day
10h 35m
Waning Gibbous, 96% of the Moon is Illuminated
Nov 8
Waning Gibbous
Nov 14
Last Quarter
Nov 22
New
Nov 29
First Quarter
Dec 6
Full

Hourly Weather History & Observations

Time (PST) Temp. Dew Point Humidity Pressure Visibility Wind Dir Wind Speed Gust Speed Precip Events Conditions
12:53 AM 60.1 °F 43.0 °F 53% 29.99 in 10.0 mi Calm Calm - N/A   Clear
1:53 AM 57.9 °F 42.1 °F 56% 30.00 in 10.0 mi Calm Calm - N/A   Clear
2:53 AM 57.9 °F 42.1 °F 56% 29.99 in 10.0 mi Calm Calm - N/A   Clear
3:53 AM 57.9 °F 39.0 °F 49% 30.00 in 10.0 mi East 3.5 mph - N/A   Clear
4:53 AM 55.0 °F 42.1 °F 62% 30.01 in 10.0 mi Calm Calm - N/A   Clear
5:53 AM 54.0 °F 42.1 °F 64% 30.01 in 10.0 mi Calm Calm - N/A   Clear
6:53 AM 57.0 °F 42.1 °F 57% 30.03 in 10.0 mi Calm Calm - N/A   Clear
7:53 AM 64.0 °F 41.0 °F 43% 30.04 in 10.0 mi Calm Calm - N/A   Clear
8:53 AM 73.0 °F 39.9 °F 30% 30.04 in 10.0 mi Calm Calm - N/A   Clear
9:53 AM 79.0 °F 36.0 °F 21% 30.04 in 10.0 mi Calm Calm - N/A   Clear
10:53 AM 82.9 °F 33.1 °F 17% 30.02 in 10.0 mi Calm Calm - N/A   Clear
11:53 AM 87.1 °F 30.9 °F 13% 29.98 in 10.0 mi Variable 4.6 mph - N/A   Clear
12:53 PM 90.0 °F 30.9 °F 12% 29.95 in 10.0 mi Variable 3.5 mph - N/A   Clear
1:53 PM 91.0 °F 30.0 °F 11% 29.94 in 10.0 mi South 3.5 mph - N/A   Clear
2:53 PM 88.0 °F 37.0 °F 16% 29.94 in 10.0 mi South 6.9 mph - N/A   Clear
3:53 PM 82.9 °F 39.0 °F 21% 29.94 in 10.0 mi South 6.9 mph - N/A   Clear
4:53 PM 79.0 °F 42.1 °F 27% 29.94 in 10.0 mi Calm Calm - N/A   Clear
5:53 PM 75.0 °F 46.9 °F 37% 29.95 in 10.0 mi Calm Calm - N/A   Clear
6:53 PM 71.1 °F 46.0 °F 41% 29.96 in 10.0 mi Calm Calm - N/A   Clear
7:53 PM 68.0 °F 46.0 °F 45% 29.97 in 10.0 mi Calm Calm - N/A   Clear
8:53 PM 64.9 °F 46.0 °F 50% 29.99 in 10.0 mi Calm Calm - N/A   Clear
9:53 PM 64.0 °F 46.0 °F 52% 30.00 in 10.0 mi Calm Calm - N/A   Clear
10:53 PM 62.1 °F 50.0 °F 65% 29.99 in 10.0 mi Calm Calm - N/A   Clear
11:53 PM 61.0 °F 50.0 °F 67% 29.99 in 10.0 mi Calm Calm - N/A   Clear